FW6667 Weather Reports


time (UTC)temp
C
wind
direction
speed
KPH
gust
KPH
rain 1hr
cm
rain 24hr
cm
rain mn
cm
humidity
%
barometer
mb
20260507211016 15 169 0.0 0.0 0.00 0.05 0.05 84 1018.1
20260507210016 15 169 0.0 0.0 0.00 0.05 0.05 84 1018.0
20260507205023 15 169 0.0 0.0 0.00 0.05 0.05 85 1017.9
20260507204015 15 170 0.0 0.0 0.00 0.05 0.05 86 1017.9
20260507203016 15 170 0.0 1.6 0.00 0.05 0.05 85 1017.9
20260507201034 15 170 1.6 1.6 0.00 0.05 0.05 84 1017.9
20260507195014 15 170 0.0 0.0 0.00 0.05 0.05 85 1017.9
20260507192012 15 170 0.0 0.0 0.00 0.05 0.05 82 1017.3
20260507191013 16 169 0.0 0.0 0.00 0.05 0.05 80 1017.3
20260507190011 17 169 0.0 1.6 0.00 0.05 0.05 76 1017.3
20260507185027 16 170 0.0 1.6 0.00 0.05 0.05 75 1017.1
20260507184012 16 169 1.6 1.6 0.00 0.05 0.05 78 1017.0
20260507183020 17 168 0.0 0.0 0.00 0.05 0.05 79 1016.9
20260507181013 18 169 0.0 1.6 0.00 0.05 0.05 70 1017.1
20260507180014 18 170 0.0 3.2 0.00 0.05 0.05 68 1017.3
20260507175014 18 172 1.6 3.2 0.00 0.05 0.05 69 1016.9
20260507174015 18 170 1.6 3.2 0.00 0.05 0.05 69 1017.0
20260507173015 18 174 1.6 3.2 0.00 0.05 0.05 67 1016.9
20260507172015 18 174 0.0 1.6 0.00 0.05 0.05 66 1016.9
20260507171016 18 173 0.0 3.2 0.00 0.05 0.05 65 1016.9
20260507170025 19 175 1.6 3.2 0.00 0.05 0.05 65 1017.0
20260507165015 19 179 1.6 3.2 0.00 0.05 0.05 64 1016.9
20260507164012 19 173 1.6 3.2 0.00 0.05 0.05 63 1016.6
20260507162012 19 188 3.2 4.8 0.00 0.05 0.05 61 1016.6
20260507161013 20 208 3.2 9.7 0.00 0.05 0.05 61 1016.6
20260507160013 20 181 3.2 8.0 0.00 0.05 0.05 60 1016.3
20260507153013 20 181 3.2 9.7 0.00 0.05 0.05 59 1016.6
20260507151015 21 200 4.8 9.7 0.00 0.05 0.05 56 1016.4
20260507150013 21 217 1.6 8.0 0.00 0.05 0.05 58 1016.3
20260507145014 21 194 4.8 9.7 0.00 0.05 0.05 56 1016.3
20260507143017 21 183 3.2 9.7 0.00 0.05 0.05 56 1016.3
20260507142015 21 185 1.6 12.9 0.00 0.05 0.05 56 1016.6
20260507141013 21 234 8.0 12.9 0.00 0.05 0.05 55 1016.6
20260507140013 21 193 4.8 9.7 0.00 0.05 0.05 57 1016.8
20260507135014 21 196 3.2 9.7 0.00 0.05 0.05 58 1016.6
20260507134012 21 197 6.4 9.7 0.00 0.05 0.05 59 1016.6
20260507133022 21 249 4.8 12.9 0.00 0.05 0.05 57 1016.6
20260507131018 21 197 8.0 12.9 0.00 0.05 0.05 59 1017.0
20260507130014 21 184 6.4 9.7 0.00 0.05 0.05 57 1017.1
20260507125019 21 201 3.2 11.3 0.00 0.05 0.05 55 1017.0
20260507124016 21 190 4.8 12.9 0.00 0.05 0.05 55 1017.3
20260507123013 21 209 9.7 12.9 0.00 0.05 0.05 56 1016.9
20260507122015 21 194 4.8 9.7 0.00 0.05 0.05 52 1017.3
20260507121014 21 183 9.7 11.3 0.00 0.05 0.05 51 1017.3
20260507120013 21 167 4.8 11.3 0.00 0.05 0.05 51 1017.3
20260507115013 21 158 6.4 12.9 0.00 0.05 0.05 52 1017.6
20260507114013 21 177 8.0 14.5 0.00 0.05 0.05 54 1017.3
20260507113015 20 199 6.4 14.5 0.00 0.05 0.05 54 1017.3
20260507112013 20 183 6.4 11.3 0.00 0.05 0.05 52 1017.3
20260507111013 20 215 3.2 11.3 0.00 0.05 0.05 54 1017.3
20260507105010 21 202 3.2 9.7 0.00 0.05 0.05 54 1017.3
20260507104014 21 188 4.8 9.7 0.00 0.05 0.05 54 1017.3
20260507103014 21 183 4.8 9.7 0.00 0.05 0.05 56 1017.4
20260507102012 21 181 3.2 4.8 0.00 0.05 0.05 57 1017.3
20260507101135 21 181 3.2 4.8 0.00 0.05 0.05 55 1017.6
20260507100017 21 173 1.6 9.7 0.00 0.05 0.05 59 1017.6
20260507095015 21 171 3.2 4.8 0.00 0.05 0.05 60 1017.6
20260507094012 21 177 3.2 8.0 0.00 0.05 0.05 62 1017.3
20260507092013 20 154 1.6 4.8 0.00 0.05 0.05 68 1017.9
20260507091011 20 147 1.6 4.8 0.00 0.05 0.05 71 1017.9
20260507090012 20 165 3.2 4.8 0.00 0.05 0.05 71 1017.7
20260507085013 20 149 1.6 3.2 0.00 0.05 0.05 68 1017.6
20260507084014 20 153 0.0 3.2 0.00 0.05 0.05 72 1017.8
20260507083130 20 147 1.6 3.2 0.00 0.05 0.05 71 1017.6
20260507082014 18 162 0.0 3.2 0.00 0.05 0.05 74 1017.9
20260507081013 18 158 0.0 4.8 0.00 0.05 0.05 76 1017.6
20260507075012 18 154 3.2 4.8 0.00 0.05 0.05 75 1017.6
20260507074033 18 151 3.2 4.8 0.00 0.05 0.05 78 1017.6
20260507073014 18 166 3.2 4.8 0.00 0.05 0.05 77 1017.6
20260507072013 18 157 1.6 4.8 0.00 0.05 0.05 78 1017.3
20260507071014 17 155 3.2 4.8 0.00 0.05 0.05 77 1017.6
20260507070014 17 166 3.2 3.2 0.00 0.05 0.05 80 1017.6
20260507065013 17 160 1.6 3.2 0.00 0.05 0.05 80 1017.3
20260507064013 17 164 1.6 4.8 0.00 0.05 0.05 79 1017.5
20260507063016 17 198 4.8 9.7 0.00 0.05 0.05 77 1017.3
20260507062014 17 177 3.2 4.8 0.00 0.05 0.05 80 1017.3
20260507061016 16 177 1.6 3.2 0.00 0.05 0.05 81 1017.3
20260507060030 16 172 0.0 1.6 0.00 0.05 0.05 84 1017.5
20260507055030 16 174 1.6 4.8 0.00 0.05 0.05 86 1017.3
20260507054029 15 161 3.2 3.2 0.03 0.05 0.05 86 1016.9
20260507053014 15 152 0.0 1.6 0.03 0.05 0.05 87 1016.6
20260507052013 15 161 1.6 3.2 0.03 0.05 0.05 85 1016.9
20260507051015 15 161 3.2 4.8 0.05 0.05 0.05 84 1016.9
20260507050012 15 152 0.0 4.8 0.05 0.05 0.05 85 1016.6
20260507045013 15 170 1.6 4.8 0.05 0.05 0.05 84 1016.9
20260507044024 15 156 1.6 3.2 0.03 0.03 0.03 84 1016.6
20260507043013 15 162 1.6 4.8 0.03 0.03 0.03 81 1016.5
20260507042012 15 170 1.6 3.2 0.03 0.03 0.03 83 1016.4
20260507041011 15 157 3.2 4.8 0.00 0.00 0.00 85 1016.3
20260507040014 15 158 0.0 0.0 0.00 0.00 0.00 93 1016.3
20260507035014 15 158 0.0 0.0 0.00 0.00 0.00 93 1016.3
20260507033013 15 158 0.0 0.0 0.00 0.00 0.00 93 1016.3
20260507032012 15 158 0.0 0.0 0.00 0.00 0.00 93 1015.9
20260507031012 15 157 0.0 0.0 0.00 0.00 0.00 91 1015.9
20260507025013 15 156 1.6 1.6 0.00 0.00 0.00 91 1015.9
20260507024012 15 160 0.0 0.0 0.00 0.00 0.00 90 1015.9
20260507023013 15 160 0.0 0.0 0.00 0.00 0.00 89 1015.9
20260507022014 15 160 0.0 0.0 0.00 0.00 0.00 89 1015.6
20260507020013 15 166 1.6 3.2 0.00 0.00 0.00 89 1015.4
20260507015016 15 165 0.0 0.0 0.00 0.00 0.00 87 1015.3
20260507014032 15 168 0.0 0.0 0.00 0.00 0.00 90 1015.4
20260507013013 15 169 0.0 0.0 0.00 0.00 0.00 90 1015.6
20260507012012 15 169 0.0 0.0 0.00 0.00 0.00 89 1015.5
20260507011013 15 169 0.0 1.6 0.00 0.00 0.00 89 1015.2
20260507010013 15 169 0.0 1.6 0.00 0.00 0.00 88 1015.2
20260507005018 15 169 0.0 1.6 0.00 0.00 0.00 87 1015.2
20260507004013 16 169 0.0 1.6 0.00 0.00 0.00 85 1015.2
20260507003013 16 169 0.0 0.0 0.00 0.00 0.00 83 1015.2
20260507002020 16 169 0.0 0.0 0.00 0.00 0.00 82 1015.2
20260507001011 16 169 0.0 1.6 0.00 0.00 0.00 82 1014.9
20260507000013 16 180 1.6 1.6 0.00 0.00 0.00 82 1015.2
20260506235012 16 166 0.0 0.0 0.00 0.00 0.00 81 1015.2
20260506234013 17 164 0.0 1.6 0.00 0.00 0.00 81 1015.2
20260506233014 17 174 0.0 3.2 0.00 0.00 0.00 80 1015.2
20260506232013 17 171 3.2 8.0 0.00 0.00 0.00 79 1015.0
20260506231015 17 174 1.6 4.8 0.00 0.00 0.00 79 1014.9
20260506230015 17 180 1.6 8.0 0.00 0.00 0.00 78 1015.0
20260506225013 17 173 1.6 3.2 0.00 0.00 0.00 77 1015.2
20260506224013 17 185 1.6 4.8 0.00 0.00 0.00 76 1014.9
20260506223016 17 190 1.6 3.2 0.00 0.00 0.00 75 1014.9
20260506222013 17 174 1.6 4.8 0.00 0.00 0.00 73 1015.0
20260506221012 17 172 1.6 3.2 0.00 0.00 0.00 72 1014.9
20260506220016 17 169 0.0 0.0 0.00 0.00 0.00 71 1014.9
20260506215014 17 169 0.0 1.6 0.00 0.00 0.00 70 1014.8
20260506213013 18 152 0.0 3.2 0.00 0.00 0.00 68 1014.6
20260506212012 18 159 1.6 3.2 0.00 0.00 0.00 65 1014.6